#timestamp,LO_Frequency,Hit,StdDev 
1457175615.7,286047002.2,N
1457175635.6,286047003.4,N
1457175655.4,286047004.3,N
1457175675.2,286047001.3,N
1457175695.0,286047001.3,N
1457175696.0,286047001.3,N
1457175715.8,286047002.6,N
1457175735.6,286047005.1,N
1457175755.4,286047006.9,N
1457175775.3,286047008.8,N
1457175795.1,286047007.3,N
1457175815.8,286047009.1,N
1457175835.7,286047008.2,N
1457175855.5,286047012.0,N
1457175875.3,286047014.9,Y
1457175895.2,286047012.9,P
1457175915.9,286047009.3,N
1457175935.7,286047009.5,N
1457175955.6,286047008.1,N
1457175975.4,286047006.2,N
1457175995.2,286047012.3,Y
1457176015.1,286047004.6,P
1457176016.0,286047004.6,N
1457176035.8,286047005.2,P
1457176055.6,286047003.4,N
1457176075.5,286047003.8,N
1457176095.3,286047004.3,N
1457176115.1,286047007.5,Y
1457176135.9,286047006.2,P
1457176155.7,286047011.5,P
1457176175.5,286047013.5,P
1457176195.4,286047014.7,Y
1457176215.2,286047003.3,P
1457176235.0,286047007.3,N
1457176235.9,286047007.3,P
1457176255.8,286047009.1,Y
1457176275.6,286047000.2,P
1457176295.4,286047002.7,N
1457176315.3,286046998.4,N
1457176335.1,286046999.6,N
1457176336.0,286046999.6,N
1457176355.8,286047001.1,N
1457176375.7,286047000.0,N
1457176395.5,286046999.9,N
1457176415.3,286047002.7,N
1457176435.1,286046998.3,N
1457176455.9,286046996.5,N
1457176475.7,286046999.5,N
1457176495.5,286046993.5,N
1457176515.4,286046995.2,N
1457176535.2,286046994.4,N
1457176555.0,286046991.5,N
1457176555.9,286046991.5,N
1457176575.8,286046988.5,N
1457176595.6,286046990.1,N
1457176615.4,286046990.0,N
1457176635.3,286046989.0,N
1457176655.1,286046988.5,N
1457176656.0,286046988.5,N
1457176675.8,286046989.8,N
1457176695.7,286046989.3,N
1457176715.5,286046989.1,N
1457176735.3,286046987.2,N
1457176755.2,286046992.8,N
1457176775.9,286046990.8,N
1457176795.7,286046991.2,N
1457176815.5,286046991.4,N
1457176835.4,286046992.8,N
1457176855.2,286046989.0,N
1457176875.1,286046985.5,Y
1457176876.0,286046985.5,P
1457176895.8,286046994.3,N
1457176915.6,286046994.2,N
1457176935.4,286046990.2,N
1457176955.3,286046993.2,N
1457176975.1,286046992.6,N
1457176995.8,286046992.4,N
1457177015.7,286046996.0,N
1457177035.5,286046989.1,Y
1457177055.3,286046991.0,P
1457177075.2,286046988.4,P
1457177095.9,286046986.4,P
1457177115.7,286046983.1,Y
1457177135.6,286046990.8,P
1457177155.4,286046992.3,P
1457177175.2,286046990.3,P
1457177195.1,286046987.4,Y
1457177196.0,286046987.4,P
1457177215.8,286046997.2,N
1457177235.6,286046995.1,N
1457177255.5,286046996.6,N
1457177275.3,286046997.1,N
1457177295.1,286046995.9,N
1457177315.9,286046994.0,N
1457177335.7,286046994.5,N
1457177355.5,286046994.0,N
1457177375.4,286046993.1,N
1457177395.2,286046991.7,N
1457177415.0,286046994.5,N
1457177415.9,286046994.5,N
1457177435.8,286046995.4,N
1457177455.6,286046994.9,N
1457177475.4,286046994.1,N
1457177495.2,286046994.5,N
1457177515.1,286046994.3,N
1457177516.0,286046994.3,N
1457177535.8,286046992.2,Y
1457177555.7,286047000.3,P
1457177575.5,286047004.4,N
1457177595.3,286047010.8,N
1457177615.1,286047014.5,N
1457177635.9,286047014.4,N
1457177655.7,286047016.4,N
1457177675.5,286047020.2,N
1457177695.4,286047023.5,N
1457177715.2,286047022.4,N
1457177735.0,286047026.6,N
1457177735.9,286047026.6,N
1457177755.8,286047024.4,N
1457177775.6,286047025.9,N
1457177795.4,286047024.9,N
1457177815.3,286047023.7,N
1457177835.1,286047025.6,N
1457177836.0,286047025.6,N
1457177855.8,286047027.6,N
1457177875.7,286047033.2,Y
1457177895.5,286047013.5,P
1457177915.3,286047009.3,P
1457177935.2,286047009.0,N
1457177955.9,286047008.2,N
1457177975.7,286047008.7,N
1457177995.5,286047004.8,N
1457178015.4,286047006.3,N
1457178035.2,286047011.4,N
1457178055.0,286047008.4,N
1457178055.9,286047008.4,N
1457178075.8,286047005.6,N
1457178095.6,286047006.3,N
1457178115.4,286047006.2,N
1457178135.3,286047010.4,N
1457178155.1,286047008.8,N
1457178156.0,286047008.8,N
1457178175.8,286047008.4,N
1457178195.7,286047010.0,Y
1457178215.5,286047001.2,P
1457178235.3,286047001.4,N
1457178255.2,286047005.4,N
1457178275.9,286047003.0,N
1457178295.7,286047005.5,N
1457178315.6,286047005.7,N
1457178335.4,286047004.9,N
1457178355.2,286047006.1,N
1457178375.1,286047009.0,Y
1457178376.0,286047009.0,P
1457178395.8,286047005.8,N
1457178415.6,286047001.3,N
1457178435.5,286046996.5,N
1457178455.3,286046992.9,N
1457178475.1,286046990.8,N
1457178495.9,286046985.8,N
1457178515.7,286046984.5,N
1457178535.5,286046979.3,N
1457178555.3,286046979.4,N
1457178575.2,286046979.7,N
1457178595.0,286046980.4,N
1457178595.9,286046980.4,N
1457178615.7,286046980.4,N
1457178635.6,286046978.0,N
1457178655.4,286046977.9,N
1457178675.2,286046981.3,N
1457178695.1,286046981.9,N
1457178696.0,286046981.9,N
1457178715.8,286046981.5,N
1457178735.6,286046980.3,N
1457178755.5,286046978.5,N
1457178775.3,286046975.1,N
1457178795.1,286046973.9,N
1457178815.9,286046975.6,N
1457178835.7,286046975.0,N
1457178855.5,286046978.5,N
1457178875.3,286046975.9,N
1457178895.2,286046974.7,N
1457178915.0,286046974.7,N
1457178915.9,286046974.7,N
1457178935.7,286046976.6,N
1457178955.6,286046974.6,Y
1457178975.4,286046995.0,P
1457178995.3,286046998.6,N
1457179015.1,286047000.7,N
1457179016.0,286047000.7,N
1457179035.8,286047003.2,N
1457179055.6,286047004.6,N
1457179075.5,286047010.6,N
1457179095.3,286047011.8,N
1457179115.1,286047014.3,N
1457179135.9,286047013.9,N
1457179155.7,286047016.4,N
1457179175.5,286047015.6,N
1457179195.4,286047014.2,N
